Location: Glens Falls
(43.3090°N, 73.6440°W)
Time: 08:32:11
(UTC-04:00)

COSMOS 2455 - Pass Details

Date: 24 February 2018
Orbit: 900 x 910 km, 67.1° (Epoch: 21 June)

Event Time Altitude Azimuth Distance (km) Brightness Sun altitude
Rises 20:05:30 0° 221° (SW) 3,509 6.3 -27.5°
Reaches altitude 10° 20:08:03 10° 226° (SW) 2,573 5.5 -28.0°
Maximum altitude 20:13:55 58° 305° (NW) 1,047 3.3 -29.0°
Enters shadow 20:17:30 24° 16° (NNE) 1,777 4.3 -29.6°
